TimeCST,TemperatureF,Dew PointF,Humidity,Sea Level PressureIn,VisibilityMPH,Wind Direction,Wind SpeedMPH,Gust SpeedMPH,PrecipitationIn,Events,Conditions,WindDirDegrees,DateUTC
12:15 AM,51.8,38.5,60,30.15,10.0,NE,4.6,-,N/A,,Scattered Clouds,40,2013-01-26 06:15:00
12:35 AM,51.1,38.3,62,30.15,10.0,NE,4.6,-,N/A,,Scattered Clouds,50,2013-01-26 06:35:00
12:55 AM,50.9,37.9,61,30.14,10.0,NE,4.6,-,N/A,,Clear,50,2013-01-26 06:55:00
1:15 AM,50.5,37.8,62,30.13,10.0,NNE,4.6,-,N/A,,Clear,30,2013-01-26 07:15:00
1:35 AM,51.1,36.9,58,30.13,10.0,NE,3.5,-,N/A,,Clear,40,2013-01-26 07:35:00
1:55 AM,50.9,36.7,58,30.13,10.0,NNE,3.5,-,N/A,,Clear,20,2013-01-26 07:55:00
2:15 AM,49.1,36.5,62,30.12,10.0,NE,5.8,-,N/A,,Clear,40,2013-01-26 08:15:00
2:35 AM,48.9,36.5,62,30.12,10.0,NE,4.6,-,N/A,,Clear,40,2013-01-26 08:35:00
2:55 AM,49.3,36.1,61,30.12,10.0,NNE,3.5,-,N/A,,Clear,30,2013-01-26 08:55:00
3:15 AM,48.4,36.0,62,30.12,10.0,NNE,4.6,-,N/A,,Clear,30,2013-01-26 09:15:00
3:35 AM,47.5,36.1,65,30.11,10.0,NE,5.8,-,N/A,,Clear,40,2013-01-26 09:35:00
3:55 AM,47.7,36.5,65,30.11,10.0,NNE,3.5,-,N/A,,Clear,30,2013-01-26 09:55:00
4:15 AM,47.8,36.5,65,30.11,10.0,North,3.5,-,N/A,,Clear,360,2013-01-26 10:15:00
4:35 AM,48.2,36.5,64,30.09,10.0,Calm,Calm,-,N/A,,Clear,0,2013-01-26 10:35:00
4:55 AM,45.3,36.9,72,30.10,10.0,North,3.5,-,N/A,,Clear,360,2013-01-26 10:55:00
5:15 AM,44.2,36.3,74,30.10,10.0,Calm,Calm,-,N/A,,Clear,0,2013-01-26 11:15:00
5:35 AM,44.2,36.1,73,30.09,10.0,Calm,Calm,-,N/A,,Clear,0,2013-01-26 11:35:00
5:55 AM,44.1,36.3,74,30.10,10.0,Calm,Calm,-,N/A,,Clear,0,2013-01-26 11:55:00
6:15 AM,43.9,36.5,75,30.11,10.0,Calm,Calm,-,N/A,,Clear,0,2013-01-26 12:15:00
6:35 AM,44.2,36.5,74,30.11,10.0,Calm,Calm,-,N/A,,Clear,0,2013-01-26 12:35:00
6:55 AM,43.7,35.8,74,30.11,10.0,NE,4.6,-,N/A,,Clear,50,2013-01-26 12:55:00
7:15 AM,43.9,35.8,73,30.11,10.0,NE,4.6,-,N/A,,Clear,40,2013-01-26 13:15:00
7:35 AM,44.1,35.8,73,30.11,10.0,NE,4.6,-,N/A,,Clear,40,2013-01-26 13:35:00
7:55 AM,43.3,35.8,75,30.10,10.0,NE,5.8,-,N/A,,Clear,50,2013-01-26 13:55:00
8:15 AM,43.7,36.1,75,30.10,10.0,NE,5.8,-,N/A,,Clear,50,2013-01-26 14:15:00
8:35 AM,44.1,36.5,75,30.10,10.0,NE,3.5,-,N/A,,Clear,40,2013-01-26 14:35:00
8:55 AM,45.1,36.7,72,30.10,10.0,North,4.6,-,N/A,,Clear,10,2013-01-26 14:55:00
9:15 AM,45.9,37.0,71,30.09,10.0,NE,6.9,-,N/A,,Clear,50,2013-01-26 15:15:00
9:35 AM,45.5,37.4,73,30.09,10.0,NE,4.6,-,N/A,,Clear,50,2013-01-26 15:35:00
9:55 AM,46.4,38.1,73,30.09,10.0,ENE,5.8,-,N/A,,Clear,70,2013-01-26 15:55:00
10:15 AM,47.8,38.8,71,30.09,10.0,East,6.9,-,N/A,,Clear,80,2013-01-26 16:15:00
10:35 AM,49.6,39.4,68,30.09,10.0,East,5.8,-,N/A,,Clear,80,2013-01-26 16:35:00
10:55 AM,52.0,40.8,66,30.12,10.0,South,5.8,-,N/A,,Clear,180,2013-01-26 16:55:00
11:15 AM,52.0,40.3,64,30.12,10.0,WSW,5.8,-,N/A,,Clear,240,2013-01-26 17:15:00
11:35 AM,53.1,40.3,62,30.10,10.0,Calm,Calm,-,N/A,,Clear,0,2013-01-26 17:35:00
11:55 AM,54.7,40.6,59,30.09,10.0,NE,3.5,-,N/A,,Clear,40,2013-01-26 17:55:00
12:15 PM,55.8,40.3,56,30.07,10.0,Calm,Calm,-,N/A,,Clear,0,2013-01-26 18:15:00
12:35 PM,57.6,41.0,54,30.06,10.0,ENE,3.5,-,N/A,,Clear,60,2013-01-26 18:35:00
12:55 PM,59.9,41.2,50,30.05,10.0,ESE,4.6,-,N/A,,Clear,120,2013-01-26 18:55:00
1:15 PM,60.3,41.5,50,30.03,10.0,Calm,Calm,-,N/A,,Clear,0,2013-01-26 19:15:00
1:35 PM,62.1,42.3,48,30.02,10.0,Calm,Calm,-,N/A,,Clear,0,2013-01-26 19:35:00
1:55 PM,64.0,42.8,46,30.02,10.0,Calm,Calm,-,N/A,,Clear,0,2013-01-26 19:55:00
2:35 PM,64.0,42.8,46,29.99,10.0,NW,3.5,-,N/A,,Clear,310,2013-01-26 20:35:00
2:55 PM,64.4,43.2,46,29.98,10.0,Calm,Calm,-,N/A,,Scattered Clouds,0,2013-01-26 20:55:00
3:15 PM,64.2,43.0,46,29.98,10.0,North,3.5,-,N/A,,Mostly Cloudy,360,2013-01-26 21:15:00
3:35 PM,67.1,43.2,42,29.97,10.0,North,4.6,-,N/A,,Mostly Cloudy,350,2013-01-26 21:35:00
3:55 PM,67.1,43.0,42,29.97,10.0,NW,6.9,-,N/A,,Mostly Cloudy,320,2013-01-26 21:55:00
4:15 PM,67.8,43.9,42,29.96,10.0,North,4.6,-,N/A,,Scattered Clouds,10,2013-01-26 22:15:00
4:35 PM,67.3,43.7,42,29.96,10.0,NNW,6.9,-,N/A,,Clear,340,2013-01-26 22:35:00
4:55 PM,67.1,43.9,43,29.95,10.0,NNE,3.5,-,N/A,,Clear,30,2013-01-26 22:55:00
5:15 PM,67.1,44.1,43,29.95,10.0,NNE,3.5,-,N/A,,Clear,20,2013-01-26 23:15:00
5:35 PM,66.2,44.8,46,29.93,10.0,Calm,Calm,-,N/A,,Clear,0,2013-01-26 23:35:00
6:15 PM,63.3,45.3,52,29.94,10.0,West,8.1,-,N/A,,Clear,260,2013-01-27 00:15:00
6:55 PM,61.0,45.1,56,29.94,10.0,WSW,5.8,-,N/A,,Clear,240,2013-01-27 00:55:00
7:15 PM,60.8,44.8,56,29.93,10.0,SW,5.8,-,N/A,,Clear,230,2013-01-27 01:15:00
7:35 PM,59.9,44.8,57,29.94,10.0,SW,3.5,-,N/A,,Scattered Clouds,220,2013-01-27 01:35:00
7:55 PM,60.1,45.5,59,29.93,10.0,Calm,Calm,-,N/A,,Overcast,0,2013-01-27 01:55:00
8:15 PM,59.2,46.0,62,29.95,10.0,South,5.8,-,N/A,,Overcast,190,2013-01-27 02:15:00
9:15 PM,58.5,45.5,62,29.95,10.0,NNW,4.6,-,N/A,,Clear,340,2013-01-27 03:15:00
9:35 PM,58.6,45.1,61,29.95,10.0,WNW,4.6,-,N/A,,Clear,300,2013-01-27 03:35:00
9:55 PM,57.6,45.5,64,29.95,10.0,Calm,Calm,-,N/A,,Clear,0,2013-01-27 03:55:00
10:15 PM,55.4,45.7,70,29.95,10.0,Calm,Calm,-,N/A,,Clear,0,2013-01-27 04:15:00
10:35 PM,55.9,45.9,69,29.96,10.0,ENE,3.5,-,N/A,,Clear,70,2013-01-27 04:35:00
10:55 PM,54.7,46.0,73,29.96,10.0,East,8.1,-,N/A,,Clear,80,2013-01-27 04:55:00
11:15 PM,54.5,45.9,73,29.96,10.0,Calm,Calm,-,N/A,,Clear,0,2013-01-27 05:15:00
11:35 PM,54.5,45.7,72,29.96,10.0,Calm,Calm,-,N/A,,Clear,0,2013-01-27 05:35:00
11:55 PM,53.4,45.3,74,29.96,10.0,NW,4.6,-,N/A,,Scattered Clouds,320,2013-01-27 05:55:00